Location: Bishopstone
(51.0167°N, 1.9000°W)
Time: 02:39:12
(UTC+00:00)

Meteor 1-12 Rocket - Pass Details

Date: 16 September 2019
Orbit: 854 x 926 km, 81.2° (Epoch: 16 October)

Event Time Altitude Azimuth Distance (km) Brightness Sun altitude
Rises 19:00:21 0° 173° (S) 3,470 7.2 -7.1°
Reaches altitude 10° 19:02:51 10° 169° (S) 2,526 6.4 -7.4°
Maximum altitude 19:08:22 51° 95° (E) 1,082 4.4 -8.3°
Drops below altitude 10° 19:13:51 10° 21° (NNE) 2,508 6.6 -9.1°
Sets 19:16:19 0° 16° (NNE) 3,444 7.4 -9.5°
